Weather in Freetown

Sierra Leone     8°25′49″N   13°10′41″W
temp.,
°C
wind,
m/s
gust,
m/s
humid.,
%
clouds,
%
prec.,
mm/h
press.,
hPa
HPBL,
m
14 june, mon
mon1400:00+25nne4494100 13.8 1014242
03:00+25ene4593100 8.2 1011292
06:00+24e2392100 8.3 1012228
09:00+26e2385100 0.0 1014360
12:00+28s4472100 0.1 1014857
15:00+28ssw5572100 0.2 1012918
18:00+27s4478100 0.9 1013660
21:00+26ssw578298 0.6 1014654
15 june, tue
tue1500:00+26sw4586100 1.8 1015355
03:00+25sw3485100 1.5 1013333
06:00+25s2285100 2.4 1014254
09:00+27ssw227624 1.8 1015423
12:00+28w3271100 2.6 1015766
15:00+28w4370100 0.7 1013791
18:00+27wsw4676100 0.8 1012754
21:00+26wsw4681100 1.3 1014494
16 june, wed
wed1600:00+26wsw4580100 1.9 1015432
03:00+26sw358298 1.8 1014426
06:00+26wsw2382100 4.1 1014344
09:00+27w1277100 3.3 1015383
12:00+28w327295 4.1 1015653
15:00+27w3374100 2.1 1014743
18:00+27w3378100 2.9 1013625
21:00+25w3488100 6.3 1014422
17 june, thu
thu1700:00+25nne1185100 6.3 1015312
03:00+25w0185100 0.0 1014228
06:00+25ene008578 0.0 1014148
09:00+27e007711 0.0 1016369
12:00+28wnw327478 1.3 1016740
15:00+27w337423 0.4 1014603
18:00+27w33746 0.4 1014649
21:00+27wsw338074 0.0 1015316
18 june, fri
fri1800:00+26wsw238140 0.0 1015386
03:00+26sw228341 0.4 1014335
06:00+25sse1186100 1.7 101450
09:00+27wsw2379100 0.1 1015517
12:00+28sw2273100 0.3 1016650
15:00+28sw447727 0.9 1014579
18:00+27sw337694 8.6 1014313
21:00+26sw3480100 0.9 1015316